Location: Broek
(53.2737°N, 5.9967°E)
Time: 22:53:17
(UTC+00:00)

Cosmos 1766 - Pass Details

Date: 10 October 2024
Orbit: 467 x 487 km, 82.5° (Epoch: 10 November)

Event Time Altitude Azimuth Distance (km) Brightness Sun altitude
Rises 17:36:22 0° 201° (SSW) 2,578 7.1 -7.6°
Reaches altitude 10° 17:38:30 10° 206° (SSW) 1,700 6.2 -8.0°
Maximum altitude 17:42:09 54° 284° (WNW) 616 4.0 -8.5°
Drops below altitude 10° 17:45:51 10° 3° (N) 1,711 5.8 -9.1°
Sets 17:48:00 0° 8° (N) 2,597 6.7 -9.4°
